Regional Weather Roundup
Issued by NWS Kansas City/Pleasant Hill, MO

Home | Current Version | Previous Version | Text Only | Print | Product List | Glossary On
Versions: 1 2 3 4 5 6 7 8 9 10 11 12 13 14 15 16 17 18 19 20 21 22 23 24 25 26 27 28 29 30 31 32 33 34 35 36 37 38 39 40 41 42 43 44 45 46 47 48 49 50
155
ASUS43 KEAX 251710
RWREAX

WEATHER ROUNDUP FOR EASTERN KANSAS AND NORTHWEST MISSOURI
NATIONAL WEATHER SERVICE KANSAS CITY/PLEASANT HILL MO
1200 PM CDT SUN SEP 25 2016

KSZ040-057-103>105-MOZ028-029-037-043-251800-
...KANSAS CITY METROPOLITAN AREA...

CITY           SKY/WX    TMP DP  RH WIND       PRES   REMARKS
K.C. INTL      DRIZZLE   60  53  77 NW12      30.16R
K.C. DOWNTOWN  CLOUDY    65  59  81 N12       30.14R
LEES SUMMIT    CLOUDY    63  59  87 N16       30.14R
OLATHE - IXD   LGT RAIN  61  58  90 N20G29    30.17R
OLATHE - OJC   RAIN      64  63  96 N15       30.14R FOG
LAWRENCE       CLOUDY    61  56  83 NW8       30.17S

$$

MOZ001>008-011>017-020>025-030>033-038>040-044>046-053-054-251800-
...NORTHERN AND CENTRAL MISSOURI...

CITY           SKY/WX    TMP DP  RH WIND       PRES   REMARKS
ST. JOSEPH     CLOUDY    62  57  83 N9        30.15R
MOSBY          CLOUDY    63  54  72 NW8       30.15R
WHITEMAN AFB   PTSUNNY   68  68 100 NW7       30.11F
CLINTON        CLOUDY    73  68  83 NW8       30.12F
SEDALIA        CLOUDY    76  66  71 W12       30.13S
WARSAW         NOT AVBL
CHILLICOTHE      N/A     69  62  78 NW9       30.12R
KIRKSVILLE     CLOUDY    74  66  76 W9        30.09R

$$

MOZ041-047>049-056>058-063>065-088>090-097-251800-
...EASTERN AND SOUTHERN MISSOURI...

CITY           SKY/WX    TMP DP  RH WIND       PRES   REMARKS
ST. LOUIS INTL PTSUNNY   88  67  49 SW9       30.06F HX  91
SPIRIT OF STL  PTSUNNY   87  70  56 SW15      30.04F HX  92
COLUMBIA       SUNNY     82  67  60 W13       30.09S
JEFFERSON CITY MOSUNNY   84  66  54 VRB7      30.07F
ROLLA          SUNNY     83  68  60 W10       30.09S
OSAGE BEACH    PTSUNNY   81  71  71 CALM      30.09F
SPRINGFIELD    MOSUNNY   86  67  52 SW13      30.09F
BRANSON        MOSUNNY   82  68  61 SW6       30.12F
JOPLIN         PTSUNNY   77  69  76 NE6       30.12F
WEST PLAINS    MOSUNNY   83  68  60 VRB7      30.13S

$$

IAZ060-094-KSZ022-034>040-054-083-096-NEZ052-066-093-251800-
...KANSAS...SOUTHEAST NEBRASKA AND IOWA...

CITY           SKY/WX    TMP DP  RH WIND       PRES   REMARKS
TOPEKA         CLOUDY    62  56  80 N6        30.18F
MANHATTAN      CLOUDY    66  50  56 N7        30.20S
EMPORIA        LGT RAIN  60  55  83 N8        30.19R
CHANUTE        LGT RAIN  71  68  90 N8        30.13R
WICHITA        CLOUDY    65  51  60 N21G31    30.20S
OMAHA          CLOUDY    66  51  58 NW10      30.13F
LINCOLN        PTSUNNY   69  47  45 NW18G31   30.17F
FALLS CITY     CLOUDY    65  51  60 N12G18    30.15F
LAMONI         CLOUDY    63  58  83 W10       30.12R
DES MOINES     CLOUDY    66  55  67 NW9       30.07S

$$





USA.gov is the U.S. government's official web portal to all federal, state and local government web resources and services.